Vorticity
7 8 8 6 6 6 5 6 7 8 10 10 10 10 10 10 10 10 10 9 8 8 5 25 24 -6 -4 6 9 3 14 14 16 17 5 7 11 5 17 -5 5 9 12 25 15 8 23 22 20 -5 10 11 14 13
7 7 7 5 5 6 8 10 9 7 6 5 5 5 6 7 9 9 8 8 11 11 1 8 12 11 10 11 9 9 -4 -14 14 9 15 15 12 5 15 -0 28 12 -19 2 -9 16 4 15 25 31 5 4 7 5
8 6 4 5 8 11 7 5 3 2 3 4 5 5 6 6 5 8 13 12 13 9 15 28 24 16 4 3 10 16 14 12 4 0 2 3 5 5 7 19 3 14 6 3 8 13 6 3 7 3 2 6 9 12
5 5 6 11 7 4 2 3 4 5 6 7 10 13 16 19 19 13 11 15 17 14 9 15 18 28 25 18 18 22 21 14 13 14 7 0 0 15 8 2 7 7 8 11 11 8 6 7 8 12 10 9 13 13
5 8 10 5 2 4 5 7 8 8 11 16 20 20 22 22 22 25 23 25 25 28 -1 -5 -0 10 13 13 14 13 13 14 15 16 10 11 17 14 7 4 7 8 7 8 1 17 13 8 8 10 14 16 13 5
10 8 3 3 5 7 8 9 10 13 18 20 26 30 30 27 23 18 30 20 -1 9 12 21 9 3 5 10 14 8 8 14 15 14 16 27 21 7 18 25 19 18 19 18 12 13 11 11 15 14 11 8 8 10
8 3 4 6 7 9 10 11 14 19 22 22 24 25 20 14 16 7 14 18 22 19 13 18 17 9 7 5 1 8 17 24 27 22 20 17 13 13 13 -1 5 13 8 12 16 16 16 16 11 10 6 6 10 12
3 4 7 7 8 10 12 15 18 19 16 18 19 16 14 13 12 29 27 29 35 36 21 12 8 13 13 18 12 10 6 6 7 11 9 12 17 21 16 20 19 20 16 12 13 5 1 7 10 13 14 14 14 14
5 6 7 8 9 11 14 17 19 16 15 16 16 18 16 19 18 10 9 12 29 27 23 -3 22 1 4 0 8 9 15 20 22 19 20 24 18 11 10 11 10 11 11 12 14 14 15 14 14 12 11 12 12 13
7 7 8 9 9 12 13 16 17 13 12 9 15 17 11 14 -5 13 -0 10 -1 -13 -7 -3 8 4 10 7 6 11 19 14 10 10 18 23 13 7 7 8 10 9 9 9 9 11 12 14 16 17 18 19 20 19
7 8 9 9 10 11 12 12 13 9 9 9 12 14 13 6 5 11 9 19 7 8 -12 -0 13 11 11 19 20 33 10 14 15 14 12 14 20 15 18 19 20 21 21 20 21 18 16 13 12 11 10 8 6 4
7 8 9 10 10 12 12 13 15 18 14 14 17 19 8 15 13 11 2 6 14 -1 -0 9 11 11 16 21 18 18 18 14 9 10 13 14 10 17 18 20 19 17 13 11 9 8 6 6 6 5 4 4 3 4
8 9 9 10 12 15 14 12 16 13 10 12 24 16 16 7 6 6 7 -5 9 11 12 9 6 15 3 18 16 16 12 7 9 19 11 10 17 16 14 9 6 5 6 7 7 4 6 6 5 5 4 5 7 8
8 10 10 12 16 14 16 13 19 2 14 24 23 12 11 9 -1 2 16 14 9 10 7 6 4 13 16 38 8 11 10 14 12 12 7 14 8 5 4 3 8 7 7 6 7 6 5 6 7 7 8 8 7 8
10 11 15 15 15 11 15 15 18 -1 24 23 22 10 -3 7 0 3 6 8 16 15 11 8 19 27 26 11 12 9 17 12 10 4 -3 6 11 10 8 8 9 7 4 5 6 8 9 10 11 10 10 9 9 12
12 17 14 14 11 14 18 19 21 3 32 20 7 1 14 6 -1 4 4 8 18 15 14 18 17 18 14 13 15 6 10 6 -11 2 8 12 15 10 6 2 2 6 10 11 10 9 9 11 13 14 17 19 23 24
17 9 12 10 11 20 20 11 14 31 14 -2 1 16 8 2 8 4 10 7 17 19 16 27 17 10 9 22 8 17 1 -8 -2 8 22 13 8 9 10 10 11 11 10 9 18 22 22 20 21 23 24 20 17 12
14 14 14 11 18 27 7 25 17 20 -4 13 11 -3 9 10 3 10 9 3 18 16 20 12 8 -4 -12 1 4 -0 -13 0 29 14 9 11 11 11 11 9 7 10 17 16 14 14 15 15 16 15 14 10 7 5
17 14 15 12 37 7 10 16 8 15 9 1 -1 14 5 7 10 11 7 9 17 14 17 17 22 7 7 11 12 -5 19 21 15 17 13 13 12 9 7 8 13 15 12 11 11 10 11 13 14 14 10 7 6 4
18 18 13 43 4 4 19 11 17 15 -7 -6 18 -1 12 17 12 16 15 15 20 14 12 16 4 13 8 14 20 13 16 22 9 15 8 0 14 16 17 18 12 9 10 10 12 12 11 11 10 10 11 10 10 11
23 12 45 -0 5 15 21 12 7 -5 1 16 -1 17 7 9 22 14 22 20 14 20 22 16 19 10 10 17 18 17 15 10 11 5 3 25 25 17 9 9 11 14 15 14 11 8 7 9 11 13 15 15 13 11
17 37 2 11 12 18 19 1 -2 0 17 2 18 7 8 14 13 21 9 25 21 7 7 24 21 18 18 17 13 11 7 7 13 22 25 16 9 9 14 16 17 13 6 3 3 3 4 7 11 12 13 15 15 12
38 7 2 7 23 8 -7 2 14 3 16 -5 9 7 16 10 20 13 14 -4 22 23 23 13 19 19 19 12 7 11 15 19 20 18 12 10 12 14 18 11 2 2 6 5 7 14 19 21 23 22 21 22 21 18
19 1 18 12 -3 -1 -8 20 1 18 6 9 -1 -7 16 28 15 11 6 22 17 23 8 -5 -7 6 18 16 16 13 9 16 18 14 10 10 13 14 5 -1 9 9 4 3 -1 2 1 18 23 18 17 19 23 21
-7 17 -0 9 -8 1 17 -1 -4 18 12 8 6 29 5 15 -0 12 37 39 33 25 -9 -26 8 11 13 0 15 18 13 11 19 16 10 9 10 11 3 -7 2 1 -1 0 0 3 4 -2 27 20 17 18 19 20
10 24 -9 -4 -4 14 3 7 4 6 13 21 16 22 7 8 33 13 2 12 19 -4 -22 -4 8 13 9 5 3 15 13 13 18 18 13 7 7 9 6 2 -0 3 0 -0 1 -1 13 -6 26 17 11 16 18 18
11 3 9 -13 -13 -3 5 8 15 23 23 32 14 13 38 17 23 4 -6 -16 -9 -6 5 8 11 14 16 12 13 18 16 17 15 18 15 7 5 4 3 1 -1 -1 -2 1 1 8 -1 14 27 14 15 18 17 17
10 23 7 -18 -10 3 0 22 27 43 27 11 9 -0 3 -30 -26 -7 7 9 13 17 30 41 40 34 29 26 24 21 18 16 15 15 14 11 12 9 6 4 3 6 7 5 5 8 28 24 14 19 20 9 11 10
25 16 -11 -10 2 6 17 26 15 19 5 4 6 12 12 15 8 9 16 22 36 28 12 9 17 21 21 21 18 18 16 13 8 6 6 4 9 10 10 9 8 4 -1 21 34 19 10 12 24 13 9 15 12 11
10 -2 -0 5 10 19 19 17 12 18 16 13 12 15 16 16 19 23 30 22 8 13 19 19 13 11 9 7 7 8 8 6 7 8 8 7 7 4 3 4 21 34 18 9 13 20 24 19 14 10 15 21 23 23
-4 2 9 13 15 17 15 22 11 12 13 22 22 20 21 16 25 26 9 11 19 18 0 2 9 0 1 7 11 13 14 11 10 6 3 7 17 29 25 14 18 20 24 18 16 11 6 7 17 21 20 17 17 17
2 7 16 17 19 27 12 9 11 17 26 27 22 17 18 28 12 5 6 17 15 7 8 7 -4 4 1 9 11 10 9 -8 6 22 17 13 21 24 25 29 35 14 5 5 9 13 21 25 23 23 20 17 14 13
10 17 24 22 13 10 12 17 16 17 22 19 34 19 17 15 -1 0 14 16 14 10 5 -11 1 7 11 4 -3 7 20 19 16 20 24 26 23 21 27 18 1 0 9 14 19 21 19 19 17 17 18 20 21 20
Height
3059 3057 3054 3052 3049 3046 3043 3039 3036 3032 3027 3023 3018 3014 3010 3005 3001 2998 2995 2992 2989 2985 2982 2980 2978 2976 2975 2974 2973 2972 2973 2971 2971 2972 2972 2970 2969 2969 2969 2968 2968 2970 2972 2973 2978 2979 2976 2972 2973 2977 2975 2974 2977 2979
3057 3055 3053 3050 3047 3044 3040 3036 3033 3029 3024 3019 3014 3009 3005 3000 2996 2991 2988 2985 2982 2979 2977 2974 2971 2970 2969 2968 2967 2966 2968 2967 2966 2965 2966 2966 2965 2964 2963 2964 2964 2968 2967 2967 2970 2968 2967 2967 2969 2970 2971 2972 2974 2976
3056 3054 3051 3048 3045 3042 3038 3033 3029 3024 3019 3014 3008 3002 2997 2992 2988 2984 2980 2976 2973 2970 2968 2965 2963 2962 2961 2961 2960 2961 2960 2961 2961 2962 2962 2962 2962 2961 2960 2960 2961 2962 2962 2963 2965 2963 2964 2964 2966 2967 2968 2969 2970 2971
3054 3052 3049 3046 3042 3038 3034 3029 3023 3017 3011 3005 2999 2992 2986 2980 2977 2973 2969 2967 2965 2963 2960 2957 2954 2954 2954 2954 2954 2953 2954 2954 2955 2955 2955 2955 2956 2956 2955 2957 2957 2958 2959 2958 2958 2958 2959 2959 2960 2961 2962 2964 2965 2966
3052 3049 3046 3043 3039 3034 3029 3023 3017 3010 3002 2994 2987 2981 2975 2970 2966 2963 2959 2957 2956 2958 2953 2951 2950 2950 2949 2948 2948 2948 2948 2948 2948 2949 2949 2949 2949 2952 2950 2951 2950 2952 2953 2954 2952 2953 2952 2953 2954 2954 2956 2957 2959 2960
3049 3046 3043 3039 3034 3029 3023 3016 3008 3001 2993 2986 2978 2972 2967 2963 2960 2957 2955 2953 2951 2950 2949 2948 2946 2944 2944 2943 2942 2942 2942 2943 2943 2943 2943 2942 2944 2947 2945 2943 2943 2944 2945 2945 2946 2946 2946 2947 2947 2948 2950 2951 2953 2954
3046 3043 3040 3035 3029 3024 3017 3009 3002 2994 2987 2980 2974 2968 2964 2961 2958 2956 2953 2950 2946 2945 2945 2945 2944 2944 2943 2941 2940 2939 2938 2938 2938 2938 2937 2938 2939 2940 2938 2938 2938 2938 2939 2939 2939 2940 2941 2942 2942 2943 2944 2945 2946 2947
3043 3039 3035 3030 3024 3018 3011 3004 2997 2990 2984 2978 2973 2968 2964 2961 2958 2954 2950 2946 2942 2942 2944 2946 2945 2945 2942 2940 2939 2937 2936 2935 2934 2934 2934 2934 2934 2934 2933 2932 2932 2932 2933 2934 2934 2935 2936 2937 2937 2938 2938 2938 2939 2939
3040 3036 3031 3025 3019 3013 3006 3000 2994 2988 2982 2978 2972 2968 2965 2962 2958 2956 2953 2950 2946 2949 2947 2948 2946 2945 2943 2940 2938 2937 2934 2932 2932 2930 2930 2931 2929 2928 2927 2927 2927 2928 2929 2929 2930 2930 2931 2931 2932 2932 2933 2933 2934 2934
3036 3032 3026 3021 3015 3009 3002 2997 2992 2987 2982 2978 2973 2968 2964 2962 2960 2958 2956 2954 2952 2950 2949 2949 2947 2945 2944 2940 2938 2937 2933 2931 2929 2929 2927 2925 2925 2924 2924 2924 2924 2924 2925 2925 2925 2926 2926 2927 2927 2928 2928 2928 2928 2929
3031 3027 3022 3017 3011 3005 2999 2994 2989 2985 2982 2978 2973 2969 2966 2963 2961 2958 2957 2955 2953 2952 2950 2948 2946 2943 2941 2939 2936 2935 2932 2930 2927 2926 2925 2922 2920 2920 2920 2920 2921 2921 2922 2922 2923 2923 2923 2923 2924 2924 2924 2924 2924 2924
3026 3022 3017 3012 3006 3001 2996 2990 2986 2982 2977 2975 2972 2967 2965 2963 2961 2961 2958 2957 2955 2953 2951 2948 2945 2942 2940 2937 2935 2933 2931 2928 2925 2923 2922 2919 2918 2918 2918 2919 2919 2920 2920 2921 2921 2921 2921 2921 2921 2921 2920 2920 2919 2918
3022 3017 3012 3006 3001 2996 2991 2987 2983 2978 2975 2972 2969 2966 2965 2964 2963 2960 2960 2957 2955 2952 2949 2946 2944 2941 2938 2937 2934 2932 2929 2926 2924 2921 2919 2917 2917 2917 2917 2918 2918 2919 2919 2919 2919 2918 2918 2917 2916 2915 2914 2913 2911 2909
3017 3012 3006 3001 2996 2991 2987 2983 2980 2976 2973 2969 2967 2965 2965 2964 2963 2961 2959 2956 2953 2949 2946 2943 2942 2940 2936 2934 2932 2929 2926 2924 2921 2920 2918 2917 2917 2917 2917 2917 2917 2916 2916 2915 2915 2914 2913 2911 2910 2908 2906 2904 2902 2900
3012 3007 3001 2995 2991 2987 2983 2979 2976 2973 2971 2968 2966 2965 2964 2963 2961 2958 2956 2952 2949 2945 2942 2940 2937 2936 2933 2931 2929 2926 2924 2920 2918 2917 2917 2917 2916 2916 2915 2915 2914 2913 2913 2911 2910 2908 2906 2904 2901 2899 2897 2895 2893 2890
3006 3001 2996 2991 2986 2983 2978 2975 2972 2970 2967 2966 2965 2964 2962 2960 2958 2954 2951 2947 2944 2941 2938 2936 2933 2931 2929 2927 2924 2921 2919 2917 2916 2915 2914 2914 2913 2913 2912 2911 2910 2908 2907 2905 2902 2900 2897 2895 2892 2890 2887 2885 2884 2882
3000 2996 2991 2985 2981 2977 2974 2972 2969 2967 2965 2964 2963 2961 2959 2957 2954 2950 2946 2942 2939 2937 2935 2933 2931 2928 2925 2922 2919 2917 2915 2914 2912 2911 2910 2909 2909 2908 2907 2905 2904 2902 2900 2897 2895 2892 2889 2886 2884 2881 2880 2878 2877 2876
2996 2991 2986 2981 2976 2973 2972 2969 2966 2965 2963 2962 2960 2958 2955 2952 2949 2945 2942 2938 2935 2932 2930 2929 2926 2922 2920 2916 2914 2913 2911 2910 2908 2906 2904 2904 2902 2901 2900 2899 2898 2896 2893 2890 2888 2885 2882 2880 2878 2876 2875 2873 2872 2871
2990 2985 2981 2976 2973 2971 2969 2967 2966 2963 2961 2959 2957 2955 2951 2948 2944 2940 2937 2933 2929 2926 2923 2921 2918 2913 2913 2912 2910 2907 2906 2903 2902 2900 2899 2898 2897 2896 2895 2893 2891 2889 2887 2885 2883 2880 2878 2875 2873 2871 2869 2868 2866 2865
2983 2979 2976 2972 2971 2969 2967 2965 2963 2960 2958 2957 2953 2950 2946 2943 2938 2934 2930 2926 2923 2920 2917 2914 2911 2909 2907 2905 2903 2901 2899 2897 2896 2895 2894 2893 2891 2890 2888 2887 2886 2884 2882 2880 2878 2875 2872 2870 2868 2865 2863 2861 2859 2858
2978 2975 2971 2971 2969 2967 2965 2962 2961 2959 2955 2952 2949 2944 2940 2936 2931 2927 2923 2919 2916 2913 2909 2908 2905 2903 2901 2899 2897 2895 2894 2892 2891 2890 2888 2886 2885 2884 2883 2883 2881 2879 2877 2875 2873 2870 2867 2864 2861 2858 2855 2853 2850 2847
2973 2970 2968 2966 2965 2963 2961 2960 2958 2955 2951 2946 2942 2937 2932 2928 2923 2919 2915 2912 2909 2907 2904 2901 2899 2897 2895 2893 2892 2890 2889 2887 2885 2883 2882 2881 2880 2879 2879 2878 2876 2875 2873 2871 2868 2865 2862 2857 2854 2850 2846 2843 2840 2837
2967 2967 2965 2964 2962 2960 2960 2956 2953 2948 2944 2938 2934 2929 2925 2921 2917 2914 2910 2906 2903 2901 2898 2897 2895 2893 2891 2889 2887 2885 2883 2881 2879 2878 2877 2877 2876 2875 2874 2873 2872 2870 2868 2866 2863 2859 2854 2849 2844 2839 2835 2831 2829 2826
2962 2962 2960 2959 2957 2956 2953 2950 2946 2942 2937 2934 2928 2922 2918 2914 2911 2906 2902 2899 2897 2895 2893 2892 2890 2889 2887 2885 2882 2880 2878 2876 2874 2873 2873 2872 2871 2870 2869 2868 2866 2864 2861 2858 2855 2851 2847 2841 2835 2830 2826 2822 2819 2817
2960 2958 2957 2954 2952 2950 2946 2941 2938 2935 2930 2926 2921 2916 2912 2908 2904 2899 2895 2892 2891 2890 2889 2888 2886 2884 2881 2879 2877 2874 2872 2871 2869 2868 2867 2867 2866 2865 2864 2863 2862 2860 2856 2852 2849 2844 2839 2834 2829 2824 2820 2815 2811 2808
2954 2952 2952 2948 2946 2944 2940 2936 2931 2927 2923 2919 2914 2910 2905 2902 2898 2893 2889 2889 2888 2887 2885 2883 2880 2877 2875 2873 2870 2868 2866 2864 2863 2862 2862 2861 2860 2859 2858 2856 2855 2854 2848 2844 2839 2834 2830 2826 2822 2817 2813 2810 2805 2801
2949 2946 2944 2942 2940 2937 2932 2927 2923 2919 2915 2910 2906 2904 2901 2896 2891 2889 2887 2886 2884 2881 2877 2873 2870 2867 2865 2863 2862 2859 2858 2857 2856 2856 2855 2854 2853 2852 2850 2847 2844 2842 2838 2834 2830 2825 2820 2817 2812 2809 2804 2801 2797 2794
2944 2940 2939 2937 2933 2929 2924 2919 2914 2910 2906 2904 2901 2899 2895 2891 2887 2884 2881 2877 2874 2870 2866 2863 2860 2857 2856 2854 2853 2852 2851 2851 2850 2849 2848 2848 2847 2844 2841 2838 2834 2831 2827 2823 2818 2813 2809 2805 2801 2798 2794 2790 2789 2786
2938 2935 2933 2930 2925 2920 2915 2910 2906 2903 2901 2896 2892 2889 2885 2881 2878 2874 2871 2868 2864 2862 2860 2857 2855 2853 2851 2850 2849 2848 2847 2846 2844 2843 2841 2840 2839 2837 2833 2829 2825 2821 2816 2811 2807 2802 2798 2796 2793 2791 2787 2783 2779 2776
2931 2929 2925 2921 2916 2910 2907 2903 2898 2894 2891 2887 2883 2878 2875 2872 2868 2865 2863 2861 2859 2857 2855 2853 2851 2850 2849 2847 2846 2844 2842 2840 2838 2836 2833 2831 2828 2825 2821 2817 2812 2808 2803 2799 2794 2791 2789 2787 2784 2781 2777 2774 2770 2767
2922 2919 2914 2910 2905 2901 2896 2892 2888 2885 2881 2877 2873 2869 2866 2863 2861 2859 2858 2856 2854 2852 2850 2849 2848 2846 2845 2843 2840 2838 2837 2834 2831 2827 2823 2819 2816 2812 2807 2803 2799 2796 2791 2787 2785 2782 2779 2776 2773 2769 2766 2764 2761 2758
2912 2909 2904 2898 2894 2891 2887 2883 2878 2875 2871 2867 2864 2861 2859 2857 2856 2855 2853 2851 2849 2847 2846 2844 2842 2841 2839 2836 2832 2829 2825 2823 2820 2815 2811 2807 2803 2799 2796 2793 2789 2786 2782 2779 2777 2774 2771 2767 2764 2760 2757 2755 2752 2750
2901 2898 2893 2888 2884 2881 2877 2874 2868 2863 2862 2859 2856 2855 2853 2853 2852 2850 2848 2846 2844 2842 2840 2838 2836 2833 2830 2827 2823 2818 2814 2809 2805 2801 2798 2795 2792 2790 2788 2786 2784 2779 2776 2773 2771 2768 2765 2762 2758 2754 2751 2748 2745 2743